Regional Weather Roundup
Issued by NWS

Home | Current Version | Previous Version | Graphics & Text | Print | Product List | Glossary On
Versions: 1 2 3 4 5 6 7 8 9 10 11 12 13 14 15 16 17 18 19 20 21 22 23 24 25 26 27 28 29 30 31 32 33 34 35 36 37 38 39 40 41 42 43 44 45 46 47 48 49 50
000
ASUS43 KLMK 121410
RWRKY
KENTUCKY REGIONAL WEATHER ROUNDUP
NATIONAL WEATHER SERVICE LOUISVILLE KY
900 AM EST FRI FEB 12 2016

NOTE "FAIR" INDICATES FEW OR NO CLOUDS BELOW 12,000 FEET
WITH NO SIGNIFICANT WEATHER AND/OR OBSTRUCTIONS TO VISIBILITY.

KYZ001>023-026-027-061>063-070>075-121500-
WESTERN AND SOUTH CENTRAL KENTUCKY

CITY           SKY/WX    TMP DP  RH WIND       PRES   REMARKS
PADUCAH        CLOUDY    29  24  82 NE5       30.22S WCI  24
HENDERSON      CLOUDY    25  21  86 CALM      30.24R
OWENSBORO      LGT SNOW  25  25 100 N6        30.23S FOG     WCI  18
HOPKINSVILLE   CLOUDY    29  25  86 N5        30.19S WCI  24
BOWLING GREEN  LGT SNOW  28  26  92 CALM      30.21S FOG
GLASGOW        LGT SNOW  26  26 100 CALM      30.20R
$$

KYZ024-025-028>034-038-045-046-053-121500-
NORTH CENTRAL KENTUCKY

CITY           SKY/WX    TMP DP  RH WIND       PRES   REMARKS
LOUISVILLE/SDF CLOUDY    28  13  53 CALM      30.20R
LOUISVILLE/LOU CLOUDY    27  14  58 CALM      30.20R
FORT KNOX      FLURRIES  26  19  74 W7        30.18R WCI  19
$$

KYZ035>037-039>044-047>052-055>060-089>105-121500-
NORTHEAST KENTUCKY

CITY           SKY/WX    TMP DP  RH WIND       PRES   REMARKS
LEXINGTON      CLOUDY    25  14  63 SE3       30.15F
COVINGTON      CLOUDY    21  10  62 SW5       30.17S WCI  15
FRANKFORT      CLOUDY    26  15  63 VRB3      30.16F
$$

KYZ054-064>069-076>088-106>120-121500-
SOUTHEAST KENTUCKY

CITY           SKY/WX    TMP DP  RH WIND       PRES   REMARKS
JACKSON        CLOUDY    23  11  60 CALM      30.13F
LONDON         LGT SNOW  23  19  85 SE3       30.13F VSB 1
SOMERSET       FLURRIES  25  21  86 CALM      30.17S
MIDDLESBORO    LGT SNOW  28  24  86 CALM      30.15F
MONTICELLO     LGT SNOW  27  23  86 N12       30.18R VSB 1   WCI  16
$$




USA.gov is the U.S. government's official web portal to all federal, state and local government web resources and services.